DW5683 Weather Reports


Display with metric or nautical units.
time (UTC)temp
F
wind
direction
speed
MPH
gust
MPH
rain 1hr
in
rain 24hr
in
rain mn
in
humidity
%
barometer
mb
20260507203036 79 219 1.0 5.0 0.00 0.00 0.00 59 1016.7
20260507201540 78 222 1.0 5.0 0.00 0.00 0.00 59 1017.0
20260507200040 78 0 1.0 6.0 0.00 0.00 0.00 61 1017.0
20260507194543 78 217 1.0 4.0 0.00 0.00 0.00 61 1017.2
20260507193034 78 217 0.0 5.0 0.00 0.00 0.00 59 1017.3
20260507191538 78 0 0.0 5.0 0.00 0.00 0.00 61 1017.5
20260507190043 78 215 0.0 5.0 0.00 0.00 0.00 61 1017.6
20260507184539 77 0 1.0 6.0 0.00 0.00 0.00 61 1017.8
20260507183041 77 212 0.0 5.0 0.00 0.00 0.00 62 1017.8
20260507181535 77 0 0.0 3.0 0.00 0.00 0.00 62 1017.8
20260507180034 76 200 0.0 4.0 0.00 0.00 0.00 64 1017.8
20260507174540 75 196 0.0 5.0 0.00 0.00 0.00 63 1017.8
20260507173037 74 192 0.0 3.0 0.00 0.00 0.00 68 1017.9
20260507171536 73 192 0.0 2.0 0.00 0.00 0.00 67 1017.8
20260507170036 73 192 0.0 2.0 0.00 0.00 0.00 67 1017.9
20260507164537 72 0 0.0 3.0 0.00 0.00 0.00 68 1018.0
20260507163038 71 0 0.0 2.0 0.00 0.00 0.00 70 1018.0
20260507161539 69 0 0.0 2.0 0.00 0.00 0.00 74 1018.0
20260507160039 68 0 0.0 2.0 0.00 0.00 0.00 74 1018.1
20260507154541 67 192 0.0 2.0 0.00 0.00 0.00 77 1018.3
20260507153045 65 0 0.0 3.0 0.00 0.00 0.00 81 1018.1
20260507151534 63 0 0.0 2.0 0.00 0.00 0.00 85 1018.2
20260507150033 61 0 0.0 3.0 0.00 0.00 0.00 92 1018.2
20260507144537 59 0 0.0 0.0 0.00 0.00 0.00 93 1018.2
20260507143038 57 0 0.0 0.0 0.00 0.00 0.00 93 1018.0
20260507141536 54 0 0.0 0.0 0.00 0.00 0.00 93 1018.0
20260507140048 53 0 0.0 0.0 0.00 0.00 0.00 93 1017.8
20260507134535 53 0 0.0 0.0 0.00 0.00 0.00 92 1017.6
20260507133039 53 0 0.0 0.0 0.00 0.00 0.00 92 1017.6
20260507131538 53 0 0.0 0.0 0.00 0.00 0.00 92 1017.5
20260507130048 53 0 0.0 0.0 0.00 0.00 0.00 93 1017.5
20260507124543 53 0 0.0 0.0 0.00 0.00 0.00 92 1017.5
20260507123047 53 0 0.0 0.0 0.00 0.00 0.00 92 1017.5
20260507121541 53 0 0.0 0.0 0.00 0.00 0.00 92 1017.4
20260507120045 53 0 0.0 0.0 0.00 0.00 0.00 92 1017.4
20260507114543 54 0 0.0 0.0 0.00 0.00 0.00 92 1017.4
20260507113039 54 0 0.0 0.0 0.00 0.00 0.00 92 1017.4
20260507111538 54 0 0.0 0.0 0.00 0.00 0.00 92 1017.4
20260507110038 54 0 0.0 0.0 0.00 0.00 0.00 92 1017.4
20260507104534 54 0 0.0 0.0 0.00 0.00 0.00 92 1017.3
20260507103039 54 0 0.0 0.0 0.00 0.00 0.00 92 1017.4
20260507101545 54 0 0.0 0.0 0.00 0.00 0.00 92 1017.4
20260507100038 54 0 0.0 0.0 0.00 0.00 0.00 92 1017.4
20260507094537 54 0 0.0 0.0 0.00 0.00 0.00 92 1017.5
20260507093039 55 0 0.0 0.0 0.00 0.00 0.00 92 1017.6
20260507091542 55 0 0.0 0.0 0.00 0.00 0.00 91 1017.4
20260507090042 55 0 0.0 0.0 0.00 0.00 0.00 92 1017.6
20260507084538 55 0 0.0 0.0 0.00 0.00 0.00 91 1017.5
20260507083046 56 0 0.0 0.0 0.00 0.00 0.00 91 1017.7
20260507081536 56 0 0.0 0.0 0.00 0.00 0.00 91 1017.7
20260507080042 56 0 0.0 0.0 0.00 0.00 0.00 91 1017.7
20260507074544 57 0 0.0 0.0 0.00 0.00 0.00 90 1017.7
20260507073039 57 0 0.0 0.0 0.00 0.00 0.00 90 1017.6
20260507071556 58 0 0.0 0.0 0.00 0.00 0.00 90 1017.7
20260507070038 59 0 0.0 0.0 0.00 0.00 0.00 89 1017.6
20260507064537 59 0 0.0 0.0 0.00 0.00 0.00 89 1017.5
20260507063039 60 0 0.0 0.0 0.00 0.00 0.00 88 1017.5
20260507061536 60 0 0.0 0.0 0.00 0.00 0.00 88 1017.5
20260507060043 60 0 0.0 0.0 0.00 0.00 0.00 87 1017.5
20260507054543 61 0 0.0 0.0 0.00 0.00 0.00 86 1017.5
20260507053042 61 0 0.0 0.0 0.00 0.00 0.00 87 1017.4
20260507051537 60 0 0.0 3.0 0.00 0.00 0.00 88 1017.3
20260507050035 61 0 0.0 0.0 0.00 0.00 0.00 87 1017.1
20260507044534 61 0 0.0 0.0 0.00 0.00 0.00 86 1016.9
20260507043039 62 0 0.0 0.0 0.00 0.00 0.00 85 1016.8
20260507041538 63 0 0.0 0.0 0.00 0.00 0.00 83 1016.6
20260507040048 64 0 0.0 0.0 0.00 0.00 0.00 81 1016.4
20260507034540 65 0 0.0 0.0 0.00 0.00 0.00 79 1016.4
20260507033038 66 0 0.0 0.0 0.00 0.00 0.00 77 1016.2
20260507031539 68 0 0.0 0.0 0.00 0.00 0.00 74 1016.2
20260507030038 70 0 0.0 0.0 0.00 0.00 0.00 70 1016.0
20260507024538 71 0 0.0 0.0 0.00 0.00 0.00 67 1016.0
20260507023037 72 0 0.0 0.0 0.00 0.00 0.00 64 1016.1
20260507021536 72 0 0.0 1.0 0.00 0.00 0.00 64 1016.0
20260507020035 72 0 0.0 0.0 0.00 0.00 0.00 64 1016.0
20260507014532 72 0 0.0 2.0 0.00 0.00 0.00 64 1016.1
20260507013038 72 0 0.0 0.0 0.00 0.00 0.00 64 1016.2
20260507011540 72 0 0.0 0.0 0.00 0.00 0.00 65 1016.3
20260507010038 72 192 0.0 1.0 0.00 0.00 0.00 65 1016.4
20260507004540 72 0 0.0 4.0 0.00 0.00 0.00 64 1016.5
20260507003035 72 0 0.0 3.0 0.00 0.00 0.00 66 1016.5
20260507001547 72 196 0.0 5.0 0.00 0.00 0.00 65 1016.6
20260507000040 72 196 1.0 4.0 0.00 0.00 0.00 66 1016.6
20260506234544 72 0 0.0 6.0 0.00 0.00 0.00 65 1016.7
20260506233038 71 0 0.0 5.0 0.00 0.00 0.00 64 1016.8
20260506231537 71 0 1.0 5.0 0.00 0.00 0.00 65 1017.0
20260506230035 71 194 0.0 5.0 0.00 0.00 0.00 65 1017.2
20260506224543 72 194 1.0 6.0 0.00 0.00 0.00 65 1017.4
20260506223041 72 0 0.0 6.0 0.00 0.00 0.00 65 1017.6
20260506221538 71 194 1.0 3.0 0.00 0.00 0.00 65 1017.8
20260506220042 72 194 0.0 5.0 0.00 0.00 0.00 65 1018.2
20260506214537 71 194 1.0 6.0 0.00 0.00 0.00 65 1018.4
20260506213035 70 0 0.0 5.0 0.00 0.00 0.00 66 1018.4
20260506211540 69 0 0.0 4.0 0.00 0.00 0.00 65 1018.6
20260506210038 69 0 0.0 3.0 0.00 0.00 0.00 67 1018.8